Wind_Speed
18 19 19 19 18 18 18 18 18 18 17 16 15 13 13 11 11 10 10 11 11 12 12 13 12 13 14 15 16 18 20 21 21 21 21 20 18 17 15 15 14 15 15 14 13 12 12 13 13 14 14 14 14 15 15 15 16 15 16 16 15 16 18 20 20 19 17 15 13 12 12 13 14 14 14 14 14 13 12 12 12 13 14 15 15
19 19 18 19 18 18 18 18 18 17 17 15 15 13 12 11 10 10 10 11 12 12 12 12 12 13 14 15 16 18 20 21 21 20 19 18 17 15 14 14 14 14 14 13 12 12 13 13 14 14 14 14 15 14 15 15 16 16 16 16 17 19 20 21 20 19 18 16 13 12 11 12 13 13 13 14 14 14 14 14 14 14 16 16 15
17 18 19 19 18 17 17 17 17 17 16 15 14 13 11 10 10 10 9 10 12 12 12 12 12 13 15 16 17 18 19 20 20 18 17 16 15 14 14 13 13 13 12 13 12 13 13 14 14 13 14 15 15 14 15 15 16 16 16 18 21 21 20 19 18 18 17 16 14 11 10 11 12 12 12 13 13 14 14 15 14 15 16 16 16
13 17 20 20 19 17 16 16 16 16 15 15 13 12 11 10 9 9 9 10 11 11 12 12 12 13 15 16 17 18 18 19 18 17 16 15 15 15 14 14 14 13 13 14 14 14 14 14 13 13 13 14 15 14 14 15 15 16 19 22 23 22 21 19 18 17 15 15 14 12 10 9 11 12 12 13 13 14 14 15 16 17 17 16 16
11 15 20 20 20 17 16 15 15 15 14 14 12 11 10 9 9 8 8 9 11 11 12 12 12 13 15 16 17 17 17 18 18 16 16 15 15 15 15 15 14 14 14 15 14 14 13 13 12 12 13 13 14 13 13 13 14 19 23 24 22 21 19 18 18 17 15 13 15 14 10 10 13 14 14 14 15 15 16 17 17 18 18 17 17
10 13 20 21 20 18 15 15 14 14 14 13 12 10 9 9 8 7 7 8 10 11 12 12 11 13 15 16 17 17 17 17 17 16 15 16 16 15 15 15 15 14 14 14 14 13 13 12 12 11 12 12 12 12 12 12 17 24 25 22 21 19 18 16 16 15 13 11 12 13 10 13 15 16 16 16 16 16 16 17 18 18 18 18 17
9 14 21 20 20 18 15 14 13 13 13 12 11 10 9 8 8 7 6 8 10 11 11 12 11 13 15 16 16 16 16 16 15 15 16 16 15 15 14 14 14 14 14 13 13 12 11 11 11 10 10 11 11 12 12 16 23 27 25 22 21 20 18 15 14 13 10 8 8 10 10 15 16 17 16 16 17 16 17 17 17 18 18 18 17
7 17 22 19 19 17 15 13 12 12 12 11 10 9 8 8 7 6 6 8 10 10 11 11 11 12 15 15 16 16 16 15 15 15 15 15 15 15 14 14 14 13 12 11 11 11 10 10 9 9 10 11 12 13 15 20 26 27 25 23 21 19 17 14 13 13 11 7 5 6 13 18 18 18 16 16 17 17 17 17 17 17 18 18 17
6 18 22 18 18 16 15 13 11 12 11 11 10 9 8 8 7 6 5 7 9 10 10 11 10 12 14 15 15 15 15 14 14 14 14 15 15 14 14 13 12 12 11 10 10 9 8 8 8 9 11 12 13 15 19 25 28 26 24 22 20 20 18 14 13 11 10 7 5 9 16 18 19 19 17 16 17 17 17 17 16 16 17 17 17
7 18 20 17 17 15 15 12 11 11 10 10 9 9 8 7 7 5 6 7 9 9 10 10 9 11 13 14 14 14 14 14 14 14 14 14 14 13 12 12 11 10 10 9 8 7 6 7 7 9 11 13 14 16 22 27 27 25 23 22 21 19 17 14 12 9 7 8 10 14 17 18 19 19 17 16 17 17 17 16 15 15 16 16 16
6 15 17 15 16 14 14 12 10 10 10 9 8 8 7 7 6 5 6 7 8 8 9 9 9 10 11 13 13 13 13 13 13 13 12 12 12 11 11 10 10 9 9 8 7 6 6 6 8 10 12 12 14 18 22 25 25 25 24 23 21 19 17 15 13 9 5 8 12 15 17 18 18 18 17 16 16 17 16 16 14 14 15 15 15
9 11 11 12 15 13 12 11 10 9 9 9 8 8 7 7 6 6 6 6 8 8 8 8 8 9 10 11 11 12 12 12 12 12 12 11 10 10 9 8 8 8 7 7 6 6 6 7 8 10 12 12 16 21 24 25 25 25 23 22 20 18 16 14 13 10 8 9 12 15 17 17 18 17 16 15 16 16 15 14 13 13 13 13 13
9 10 9 9 13 12 12 11 10 9 9 9 8 8 7 7 6 6 6 6 7 7 8 8 8 9 9 10 10 11 12 12 11 11 10 10 9 9 8 7 6 6 5 5 5 5 6 7 8 10 11 13 18 23 26 26 25 24 23 21 19 17 13 11 10 9 10 12 13 14 16 17 17 16 15 14 14 14 14 13 12 12 12 11 11
8 10 9 8 12 11 12 12 11 10 9 9 9 8 8 8 7 6 6 6 7 7 7 7 7 8 9 9 9 10 11 11 10 10 9 9 8 7 7 6 5 4 3 4 5 5 6 7 8 10 11 15 19 23 26 26 25 24 23 21 18 16 12 10 8 9 12 13 13 12 13 16 16 15 14 13 13 13 12 11 10 10 10 9 9
7 10 9 8 12 12 12 12 11 11 10 10 9 9 8 9 8 7 6 6 7 7 8 7 7 8 8 8 8 9 10 10 10 9 8 8 7 7 6 4 3 2 3 5 6 6 7 7 8 10 11 15 18 22 26 26 24 23 21 19 17 14 11 10 8 9 11 12 12 11 11 13 13 13 12 11 11 10 10 9 8 8 8 7 7
6 8 7 8 13 13 13 13 12 11 11 11 10 10 9 9 8 7 7 6 7 7 8 8 7 8 8 8 8 9 10 10 9 8 8 8 7 6 5 3 2 2 4 6 6 7 7 7 8 10 11 14 18 22 25 24 23 22 20 18 15 12 9 9 8 9 11 12 12 10 10 11 11 11 10 9 9 8 7 7 6 6 5 5 5
6 7 6 10 15 14 15 14 13 13 12 11 10 10 10 10 9 8 8 7 7 7 9 9 8 8 8 8 8 8 9 9 9 9 8 8 6 6 4 2 2 3 5 6 6 7 7 8 8 9 10 13 18 23 25 22 21 20 19 17 14 11 8 8 10 11 12 11 11 9 8 9 9 9 8 8 7 6 5 5 5 4 4 3 2
6 7 7 13 17 15 15 15 14 13 12 12 11 11 11 10 10 9 9 8 7 8 9 9 8 8 8 7 7 7 7 8 9 9 8 8 6 5 3 2 3 4 5 5 6 6 7 7 8 9 10 13 18 22 23 21 20 19 18 17 14 11 8 9 10 11 11 10 10 8 7 7 7 7 6 6 5 4 3 3 3 3 3 2 2
8 7 10 15 16 14 15 13 13 13 12 12 12 11 11 11 10 10 10 9 8 8 9 8 8 8 8 8 8 7 6 6 7 8 9 9 8 6 5 3 3 4 4 4 5 5 6 7 8 9 9 13 18 20 20 21 20 18 18 17 14 11 8 7 9 9 9 8 8 7 6 5 5 6 5 5 4 2 2 2 2 1 2 2 2
8 8 12 16 15 14 14 12 12 12 12 13 12 12 11 11 11 11 10 10 9 8 8 8 8 8 8 9 9 8 7 5 5 8 10 10 9 8 7 5 4 5 4 4 4 4 5 6 8 9 9 12 17 18 18 20 19 18 17 15 13 10 6 6 7 7 7 6 6 5 4 4 4 4 3 3 2 1 0 0 1 1 1 1 2
10 11 15 16 15 14 13 12 12 12 12 13 13 13 12 12 12 11 11 10 10 9 9 9 9 8 8 9 8 7 6 3 3 5 8 10 9 9 8 6 5 5 5 4 4 4 4 6 8 9 10 12 15 17 18 19 19 18 15 13 11 8 6 5 5 5 5 5 5 4 2 2 2 2 1 1 1 1 1 1 0 1 1 2 2
18 19 19 18 16 15 15 14 13 13 13 13 13 13 12 13 12 12 11 10 10 10 9 9 9 9 8 8 8 7 5 3 1 1 4 8 9 9 9 8 6 6 6 5 5 5 5 6 8 9 10 12 15 18 19 19 18 17 15 12 9 8 6 4 3 3 4 4 4 3 1 0 1 1 1 1 1 1 2 2 1 1 2 2 2
22 20 18 16 12 13 15 16 14 13 14 14 13 12 12 11 11 11 11 11 10 8 8 8 9 10 10 10 9 8 7 4 2 2 2 4 7 8 8 8 7 7 7 6 6 6 6 7 9 10 11 12 15 18 19 17 16 15 14 12 7 5 3 2 3 3 3 3 2 2 1 2 3 3 3 3 3 3 3 3 2 2 1 1 1
16 15 14 13 9 9 13 15 14 13 15 14 13 12 12 11 11 11 11 11 10 8 8 8 9 11 12 11 10 9 7 5 3 4 3 3 5 7 8 9 9 8 8 7 7 7 6 8 10 11 12 13 16 17 16 13 12 11 11 10 5 2 2 3 2 1 2 3 3 3 3 3 4 5 5 5 5 4 4 2 1 1 1 1 1
13 15 15 13 10 8 11 13 12 13 14 13 12 12 12 12 12 12 12 11 10 9 9 8 8 10 11 10 9 8 7 5 4 5 6 6 5 7 9 10 10 9 10 9 8 8 7 7 9 11 12 13 15 15 13 10 6 8 11 9 3 3 5 7 5 4 3 4 5 5 5 5 5 7 6 5 5 5 3 2 1 0 1 2 2
14 16 16 14 12 10 10 10 10 12 11 11 11 11 10 12 12 12 12 11 10 10 9 9 8 8 9 9 9 8 6 6 5 5 7 7 6 6 8 10 11 11 11 11 10 9 8 8 9 11 12 13 13 12 11 7 2 4 8 7 3 5 8 9 8 8 6 5 6 6 6 6 5 7 6 5 4 4 2 2 1 1 2 2 3
14 14 14 14 14 13 11 10 11 12 11 10 11 10 9 11 10 10 9 8 9 9 8 7 7 8 8 7 8 8 7 7 7 6 7 8 8 8 9 10 11 13 14 13 12 11 10 10 10 11 11 12 11 10 9 4 2 4 3 6 5 7 9 10 11 9 8 8 7 5 5 5 5 5 5 4 3 3 2 1 1 1 2 3 4
12 12 12 13 14 13 12 12 12 11 10 9 9 9 8 8 8 8 7 6 7 8 6 6 7 8 7 6 5 6 6 7 7 8 10 10 10 9 10 11 11 12 14 15 15 13 13 12 11 12 11 11 11 9 7 4 4 5 4 4 6 9 10 12 12 10 9 10 6 3 4 4 5 5 4 3 3 3 1 1 2 2 3 5 7
10 11 11 12 13 13 13 12 11 10 10 8 7 7 6 6 5 5 4 4 5 5 5 5 7 8 8 7 6 5 6 7 8 9 11 11 12 11 11 13 13 13 13 15 17 15 14 14 13 14 13 11 10 9 7 7 7 8 10 6 7 11 12 12 11 11 11 10 5 4 7 6 5 5 4 3 3 3 1 2 3 4 5 7 8
11 12 11 11 11 12 12 12 11 9 9 8 6 6 6 5 5 4 4 4 4 4 4 6 7 7 8 9 9 8 7 8 9 10 11 11 13 14 13 13 14 16 15 14 15 17 15 13 13 15 16 13 10 9 8 11 10 10 12 11 12 13 12 10 10 11 11 10 9 8 9 8 6 6 5 3 3 2 2 3 4 7 8 8 8
12 12 12 10 11 12 12 12 11 9 9 7 6 7 6 5 5 5 5 5 5 5 5 6 7 6 7 9 10 9 8 9 10 10 12 12 13 16 16 14 14 18 19 16 14 16 17 15 14 16 18 15 11 10 11 13 14 13 14 15 15 14 13 11 11 12 11 11 11 10 10 8 5 6 4 3 3 2 3 4 7 8 9 8 8
12 12 13 13 12 12 12 12 11 10 9 8 7 7 6 7 8 7 7 5 5 5 5 6 6 6 7 9 9 9 9 10 11 11 12 12 13 16 19 17 15 16 19 22 21 17 17 17 17 18 19 16 13 13 14 15 16 17 16 17 16 14 15 14 12 12 12 13 12 11 10 8 5 5 4 2 2 3 5 6 8 9 9 8 7
12 12 13 12 12 12 13 12 11 11 10 9 9 9 9 9 9 8 7 6 5 5 4 4 6 6 7 8 7 8 8 10 11 12 13 13 13 16 19 19 17 17 16 23 26 22 21 20 18 20 20 19 19 18 17 16 16 16 15 17 17 14 15 15 14 15 14 14 13 12 10 8 6 5 3 2 2 4 6 8 9 9 9 8 8
12 11 12 12 12 12 13 13 13 12 11 11 11 10 10 9 8 8 6 5 4 4 4 4 5 6 7 7 7 7 8 9 11 12 13 15 15 15 17 18 18 19 17 19 23 24 25 24 21 22 21 21 22 20 19 19 18 17 18 19 17 13 15 17 16 16 16 15 14 12 8 7 6 5 3 2 2 4 6 8 9 9 9 8 8
12 12 13 13 13 13 12 13 13 12 11 11 10 10 9 8 7 6 6 4 3 4 4 4 6 7 8 7 7 8 8 9 10 11 13 15 17 16 16 16 17 18 19 20 21 22 23 23 24 24 22 22 23 21 20 21 20 20 21 21 18 15 14 15 16 17 16 15 14 11 8 7 6 6 4 2 2 4 7 8 9 9 9 8 6
13 13 13 12 12 13 13 12 13 13 12 10 10 9 8 7 6 6 6 4 2 3 4 5 6 7 7 7 7 9 9 10 10 10 11 14 16 17 16 16 16 17 19 20 21 21 20 21 23 25 24 23 24 24 22 22 21 20 20 20 19 18 14 12 14 16 16 15 14 11 8 7 6 6 5 3 3 5 7 8 8 8 8 7 5
12 12 11 11 11 12 12 12 13 12 12 10 10 9 8 6 6 6 6 4 2 3 4 5 6 7 7 7 8 8 9 11 11 10 10 13 15 17 17 17 17 17 17 19 20 20 20 21 23 25 25 24 24 25 23 22 22 21 21 20 18 19 19 14 11 14 16 16 15 13 10 8 8 7 6 4 4 5 7 7 7 8 7 6 7
12 11 9 8 9 9 10 11 11 10 10 10 10 9 8 6 6 6 5 4 3 3 3 5 5 6 6 7 8 8 10 12 12 11 11 12 15 17 18 19 20 18 17 18 19 19 20 21 23 24 25 24 24 25 23 23 24 22 22 22 20 18 19 19 15 13 15 17 16 14 11 10 10 8 7 5 5 6 7 7 7 8 8 7 8
13 11 9 8 8 8 9 9 9 9 9 10 10 9 8 7 6 5 5 4 4 3 2 3 3 5 5 6 8 9 10 12 13 12 12 13 15 17 19 20 20 20 19 19 20 19 20 22 23 24 26 25 24 26 25 25 25 23 22 22 22 20 19 20 20 16 15 16 16 15 13 12 12 9 8 6 6 7 7 7 7 8 8 8 8
13 12 10 9 8 8 8 7 9 11 11 10 9 9 9 8 7 6 5 4 3 3 2 3 3 4 4 5 7 9 10 11 12 12 12 13 14 16 19 21 20 20 20 20 20 19 19 21 23 24 25 25 25 28 28 27 26 24 24 22 21 21 20 19 19 17 16 16 16 16 15 14 13 11 9 8 9 9 8 9 9 8 9 9 9
12 10 9 9 7 6 6 7 8 10 10 9 9 10 10 8 7 6 5 4 3 2 2 3 3 3 3 5 6 8 9 10 11 12 12 14 15 16 18 21 21 21 20 20 20 20 19 20 22 24 25 25 26 28 28 28 26 24 24 23 22 22 22 21 19 19 18 17 17 17 16 15 14 13 11 10 10 10 9 10 10 10 10 10 10
13 11 10 9 7 6 6 7 8 8 8 8 8 8 8 7 6 5 4 5 4 2 3 2 3 4 4 5 6 6 7 8 10 11 12 14 16 17 17 19 21 21 20 20 20 21 20 20 21 24 26 26 26 27 27 28 26 23 21 21 22 23 24 22 20 21 20 19 19 19 19 17 15 15 14 13 12 11 10 11 11 11 11 11 11
13 12 10 9 8 7 7 7 7 7 7 6 7 7 7 7 6 5 5 5 3 2 5 5 4 4 5 5 5 5 6 7 9 10 11 12 14 16 17 18 20 21 21 20 20 21 21 22 22 24 25 26 27 27 27 27 26 22 19 19 21 22 23 23 23 22 21 21 21 21 21 19 17 17 16 15 13 11 11 12 12 12 12 12 12
10 10 9 9 9 8 8 8 8 7 6 5 5 6 7 7 7 6 5 5 3 2 5 5 4 3 3 5 5 5 6 7 7 8 9 11 13 14 15 17 19 20 20 20 20 20 21 21 22 23 25 26 27 27 27 27 26 24 22 21 19 19 21 23 24 24 22 21 22 22 22 21 19 19 18 17 15 13 12 13 13 12 12 12 12
9 9 9 9 9 10 10 9 9 9 9 8 7 6 5 5 7 8 7 6 5 3 3 5 6 5 4 5 5 5 6 7 8 8 9 10 12 13 14 16 18 19 20 20 20 19 20 21 22 23 25 27 27 28 28 28 28 27 26 23 18 17 22 23 21 22 23 23 23 24 24 23 21 21 20 18 16 14 14 14 14 13 13 12 12
12 11 10 10 9 10 10 10 9 9 10 10 9 9 8 7 7 8 8 6 4 4 3 5 7 8 7 6 5 6 7 8 9 10 10 10 11 13 14 15 17 19 19 20 20 20 20 21 22 24 25 26 27 28 29 29 29 27 27 27 23 21 22 21 19 19 20 23 24 24 25 24 23 22 21 19 17 16 15 16 15 14 14 13 13
14 13 11 11 11 10 9 9 9 8 8 8 8 9 8 9 9 8 7 5 4 4 3 4 6 7 7 6 6 6 8 9 10 11 11 12 11 11 13 14 16 18 20 21 22 22 22 21 23 24 25 26 27 28 28 29 30 29 28 30 29 26 23 20 20 17 17 20 23 24 25 25 24 23 22 20 19 18 17 18 17 16 15 15 15
12 12 11 10 9 9 8 7 7 6 7 8 8 8 8 9 9 8 6 3 2 3 4 5 5 6 7 8 8 8 9 10 10 10 11 12 13 12 13 14 15 17 20 23 23 23 23 23 23 24 25 26 26 27 27 28 30 31 30 31 30 29 26 23 20 18 16 17 19 22 25 25 25 24 23 21 21 20 19 19 20 18 17 17 18
9 9 10 9 7 7 6 6 5 6 7 8 8 9 10 9 8 7 6 3 2 3 4 5 6 6 7 9 10 11 11 11 11 11 11 12 13 13 14 14 15 16 19 22 24 24 24 25 25 25 26 26 26 27 27 28 30 31 31 31 31 30 28 26 22 20 19 18 17 20 23 25 26 26 24 22 22 21 21 21 21 19 18 19 19
8 8 8 8 7 6 5 4 4 3 4 6 8 9 10 10 8 7 7 6 5 3 1 3 5 6 8 9 11 12 12 12 13 13 13 13 13 14 16 16 16 16 18 21 23 24 25 26 27 26 26 26 26 26 28 28 29 30 31 31 31 31 30 29 27 25 23 21 19 19 20 23 26 26 25 24 23 22 22 23 23 21 20 21 20
4 5 6 6 6 5 4 4 3 3 3 3 4 6 8 8 8 7 7 7 7 5 3 1 2 5 7 9 11 13 13 13 13 14 15 15 15 15 16 18 18 18 18 19 21 22 23 25 26 27 27 27 26 27 29 29 29 30 31 31 30 30 29 29 29 29 28 26 23 21 20 20 22 23 23 23 22 22 22 24 25 24 22 21 21
Wind_Direction
167 167 167 165 167 159 152 148 146 146 146 147 143 142 137 131 122 111 101 99 103 100 92 87 85 87 91 93 98 102 103 103 103 101 101 102 103 103 103 105 109 113 114 112 107 99 96 99 99 98 99 100 99 98 97 97 95 94 94 87 77 76 76 74 71 67 65 66 76 86 86 83 81 79 77 81 85 87 91 90 86 86 86 85 86
166 170 171 165 170 164 156 150 147 148 149 150 147 146 143 136 124 113 105 102 107 104 95 90 89 91 93 95 98 104 106 107 107 104 101 100 99 98 99 101 105 110 112 110 105 100 99 100 99 99 100 102 100 99 99 98 98 96 90 84 81 82 79 74 68 62 64 68 71 76 77 78 78 75 74 76 79 81 88 90 86 85 84 85 85
169 173 174 167 169 166 159 152 148 150 150 151 149 151 148 138 125 116 107 104 110 106 98 92 90 94 95 96 100 105 108 110 110 108 103 100 98 96 98 98 101 106 109 109 105 102 101 100 100 101 102 102 101 100 101 100 99 94 89 90 87 82 78 75 67 57 63 71 69 70 75 76 77 76 75 77 78 82 88 90 89 89 88 86 87
172 174 177 169 167 166 160 154 150 150 150 150 151 154 152 138 125 119 110 107 112 108 100 94 91 95 96 97 101 107 110 112 112 109 105 100 98 97 98 99 100 103 106 106 103 101 100 102 102 102 102 102 103 103 102 101 97 93 94 93 87 80 76 74 65 54 55 64 61 60 76 84 85 86 85 86 83 86 88 89 90 90 91 90 89
174 177 181 171 166 164 158 154 150 149 148 149 153 156 151 137 128 121 112 109 112 109 102 95 93 96 97 99 103 109 112 112 112 109 106 101 99 99 100 100 101 102 103 102 102 101 102 104 103 102 101 102 104 104 104 100 98 101 100 94 88 83 76 71 65 57 48 49 50 50 74 94 93 92 90 91 87 86 87 88 90 91 93 93 91
180 185 182 174 167 161 158 154 149 147 146 149 154 155 149 138 132 125 114 110 113 111 104 98 95 98 99 102 106 110 112 113 113 111 107 102 101 101 102 102 102 102 101 101 102 103 104 104 103 102 100 103 103 104 104 98 105 108 103 95 92 87 81 76 71 69 56 48 41 35 74 99 93 90 87 90 90 89 88 89 93 94 95 93 90
190 188 181 176 168 159 156 152 148 146 145 148 152 152 146 142 135 128 117 110 114 113 107 100 97 100 103 105 108 111 113 114 113 111 107 105 104 103 104 103 103 101 100 102 103 103 102 102 102 103 100 101 101 102 101 103 113 112 104 99 95 90 88 86 87 90 85 73 36 24 81 98 93 91 88 90 92 90 88 90 94 94 94 92 89
190 185 181 176 166 158 152 148 146 143 144 145 149 150 146 143 135 130 119 111 116 116 110 103 99 101 107 110 110 112 114 114 112 111 108 108 107 107 108 106 106 104 104 106 106 106 104 104 102 100 97 98 101 102 104 112 117 113 107 102 95 91 90 93 105 111 109 99 39 44 91 95 92 90 89 91 91 89 86 88 90 90 91 90 89
189 181 179 173 165 157 149 146 143 140 140 142 145 149 146 141 134 131 118 114 119 118 112 106 103 104 112 115 114 114 115 115 113 113 111 111 110 111 113 112 111 107 106 107 105 106 104 103 98 95 96 101 105 106 112 117 117 113 109 105 101 97 94 100 113 113 104 106 96 94 96 93 94 93 93 93 92 91 89 88 88 88 89 89 88
190 178 177 170 164 155 145 141 138 135 135 139 142 143 144 138 132 132 120 117 122 121 117 110 107 107 115 121 119 117 116 118 116 115 115 115 115 115 117 114 111 105 101 100 96 95 95 97 98 99 101 106 108 113 118 119 117 114 111 109 107 103 103 108 114 110 94 97 99 100 98 97 99 99 101 100 98 98 97 96 92 89 88 87 86
159 168 170 167 163 151 142 135 131 129 129 133 136 139 137 132 133 132 122 120 125 125 122 117 111 108 115 122 123 121 119 121 121 119 118 119 118 118 119 117 111 103 99 95 84 80 90 99 103 104 105 108 111 118 122 119 116 114 111 108 105 104 108 113 122 131 123 101 99 103 103 103 103 104 106 104 104 105 103 102 98 93 90 89 87
132 143 149 160 161 148 137 127 125 124 123 126 129 134 130 131 135 131 123 124 130 130 129 123 116 110 111 120 126 127 122 122 124 122 122 121 118 120 120 119 111 99 98 89 70 72 88 99 103 105 108 111 115 122 124 119 115 112 108 106 107 107 107 112 122 132 129 113 106 107 107 106 106 106 107 105 107 107 106 105 100 94 91 93 90
135 131 125 149 156 145 132 122 121 119 117 121 123 128 127 130 131 128 123 130 136 137 135 128 121 112 109 117 125 129 127 125 127 126 125 122 118 123 124 120 111 97 94 84 72 82 92 97 101 106 111 117 121 126 125 119 114 110 109 109 112 114 112 111 111 115 116 113 112 112 112 111 109 109 110 110 110 110 109 107 101 96 93 94 91
134 142 130 141 153 143 127 120 117 116 115 116 118 120 121 124 127 129 128 138 143 142 141 135 128 118 116 121 124 130 133 131 131 130 126 123 122 128 129 124 116 103 95 91 94 97 97 98 103 110 116 124 129 130 124 118 114 112 112 114 116 118 120 116 110 111 111 111 113 116 115 112 113 115 116 117 116 115 114 111 108 104 101 98 94
126 147 144 140 152 143 122 119 116 115 114 113 115 115 119 124 130 135 135 146 145 145 147 144 140 130 128 128 128 129 133 140 140 136 127 124 130 135 135 129 123 109 101 107 109 104 100 99 106 115 121 128 134 132 124 118 117 116 117 117 119 122 120 112 109 110 111 114 114 113 110 111 115 117 118 119 119 118 117 116 115 112 110 110 108
138 151 151 143 149 141 123 122 120 118 116 114 116 119 126 131 136 140 140 146 144 150 153 153 153 143 138 134 135 131 135 146 149 146 134 130 141 143 140 133 118 99 111 115 112 108 104 105 114 121 124 130 136 133 125 121 120 120 119 118 120 121 117 113 116 117 116 120 119 117 115 115 116 117 119 121 122 122 121 120 118 119 120 118 114
159 155 149 144 147 139 129 127 125 121 117 117 121 127 134 138 141 143 142 147 151 159 160 161 160 152 148 143 143 139 137 143 149 154 143 135 143 147 148 131 98 99 119 118 111 112 110 114 122 128 129 132 139 135 127 123 123 123 121 121 124 123 126 130 126 119 115 117 120 121 119 119 121 121 123 127 129 128 128 127 121 119 116 108 96
160 153 142 144 147 140 133 128 125 122 121 124 129 134 138 142 144 143 145 151 161 166 166 164 161 158 156 155 153 146 140 140 145 152 149 144 149 160 168 145 102 108 122 119 113 112 114 123 130 134 135 136 143 140 131 129 127 127 127 126 126 129 138 133 121 115 113 116 122 123 120 121 124 123 125 130 130 131 131 122 117 106 97 80 52
145 137 141 147 147 139 132 126 127 127 132 137 137 140 140 143 144 145 148 155 163 166 167 163 158 159 164 168 163 153 149 149 148 150 150 152 162 176 184 170 131 125 131 125 120 118 123 133 138 143 142 142 148 146 139 137 133 130 130 130 133 142 148 121 107 109 111 115 120 121 124 128 131 128 129 131 132 138 128 105 91 79 73 56 43
128 118 136 147 143 136 134 133 138 141 146 145 143 144 141 142 143 145 150 157 162 160 159 156 155 159 168 175 172 170 167 165 158 155 154 156 170 181 187 186 160 148 148 141 137 135 137 143 149 152 149 148 153 155 149 142 138 134 133 136 142 153 156 120 106 109 110 114 114 113 119 134 135 127 123 127 143 151 117 97 69 37 29 43 39
126 110 125 141 142 142 146 148 151 152 152 149 148 147 144 144 142 143 147 155 158 153 151 151 153 156 163 170 174 174 169 176 180 165 161 164 177 185 186 191 182 169 161 159 159 154 151 153 158 161 159 157 157 157 153 145 139 136 134 134 140 154 161 143 124 114 121 127 123 119 113 127 128 116 112 111 161 215 286 290 351 316 330 19 33
129 116 123 142 152 158 161 158 157 156 155 153 151 148 147 146 142 143 146 152 153 149 153 153 150 147 149 155 157 153 145 152 181 178 175 174 182 193 194 193 193 186 176 173 173 168 165 161 162 166 165 163 160 155 152 148 143 139 133 129 145 171 167 161 156 134 146 154 148 147 131 352 301 320 318 317 286 271 279 286 304 313 339 18 47
132 126 132 146 153 161 166 162 161 161 160 156 152 150 152 149 146 149 151 151 149 151 158 152 142 136 136 142 143 141 136 133 146 168 188 188 188 203 210 204 200 196 191 186 183 178 174 170 166 167 166 163 160 156 154 151 147 144 136 132 156 186 160 160 175 169 184 190 192 199 232 297 299 292 296 300 295 286 284 282 290 321 359 31 47
144 148 149 161 162 149 159 160 162 168 167 161 157 163 164 158 156 154 155 153 148 155 156 143 134 129 133 141 140 138 136 134 161 180 186 195 194 209 222 222 213 204 202 199 194 186 181 177 171 167 163 162 162 159 154 151 149 146 135 130 151 204 234 256 238 190 239 248 254 271 283 289 290 289 297 297 291 288 285 280 280 321 34 70 57
161 164 159 170 174 155 154 154 161 175 174 165 165 176 174 167 165 159 159 157 152 159 154 142 141 138 142 147 143 145 151 161 185 197 200 204 201 208 220 232 230 217 209 209 206 196 189 181 173 172 165 163 167 164 153 144 145 146 134 124 146 240 262 271 295 326 306 286 282 293 300 298 297 303 314 305 292 293 284 281 282 36 115 110 96
164 167 163 166 174 179 175 161 166 181 178 165 167 179 177 170 167 164 167 162 158 164 158 152 158 155 158 157 149 153 171 189 205 214 216 222 224 213 214 226 234 231 220 215 214 207 198 186 175 169 167 167 170 171 162 146 147 173 154 134 164 251 268 270 293 316 315 322 310 296 298 305 309 311 321 314 297 295 282 284 280 122 116 114 108
167 164 163 166 174 183 187 178 173 179 180 170 171 179 179 171 166 172 175 164 163 169 166 168 175 168 170 171 161 164 183 201 216 229 232 236 239 228 223 223 226 233 229 223 218 213 207 195 182 171 172 175 176 181 179 184 257 250 207 136 170 248 270 275 294 309 310 325 321 301 295 306 319 318 319 309 292 291 277 257 198 139 119 118 114
168 161 162 169 171 174 178 180 175 176 184 177 173 178 182 177 170 178 175 163 164 171 179 186 188 182 184 196 187 177 187 206 218 230 236 240 242 233 234 233 225 227 229 230 226 218 213 205 198 189 184 183 188 194 197 233 248 242 248 152 183 248 263 273 286 293 303 320 324 321 321 320 324 320 319 314 299 296 270 173 162 145 130 126 122
152 153 164 169 167 173 172 172 172 175 183 175 166 171 183 187 183 184 177 172 162 163 182 189 199 202 202 209 214 212 202 210 219 231 237 242 244 235 234 234 229 228 225 230 231 227 220 212 215 209 195 191 196 194 202 241 230 222 244 216 201 237 251 264 274 284 297 305 304 319 323 317 315 317 319 322 312 295 239 161 160 146 134 131 127
131 131 148 160 162 170 163 159 169 174 179 174 164 167 177 184 183 189 192 190 163 158 174 182 201 212 213 214 220 231 223 218 224 234 238 239 241 237 237 231 227 228 226 231 233 231 225 216 230 229 213 207 199 188 206 235 228 220 237 228 212 225 240 250 258 275 288 291 290 300 314 312 304 310 314 313 311 287 215 169 158 145 140 137 131
118 115 119 134 151 159 151 151 162 164 172 170 160 165 171 167 162 169 176 175 165 162 166 177 198 211 220 219 220 235 238 231 233 239 239 234 236 238 238 235 232 227 223 230 235 230 225 218 235 246 236 224 202 199 216 229 231 226 231 233 227 227 235 244 250 261 273 281 286 293 310 315 297 298 305 305 302 239 186 169 157 149 146 142 134
110 109 108 114 130 144 145 147 152 152 159 157 153 161 162 156 154 154 153 164 174 168 163 176 195 205 213 211 213 230 239 239 242 247 243 233 234 237 234 234 236 230 220 221 226 232 232 226 227 240 244 233 220 224 223 225 235 235 234 236 237 232 231 238 244 248 257 267 276 287 300 302 287 291 299 300 275 202 180 169 160 155 151 144 137
111 114 114 114 119 133 141 144 147 146 144 142 147 154 159 160 157 153 151 164 180 176 178 195 205 210 214 217 224 232 231 230 235 242 243 237 236 235 231 231 232 234 226 216 219 226 235 239 230 230 234 229 232 237 225 219 231 238 239 237 241 241 232 234 239 241 249 256 265 279 287 282 273 277 287 285 239 195 180 170 165 161 156 150 143
113 118 117 117 123 135 144 146 148 147 142 142 146 152 160 165 160 159 160 166 179 190 205 225 226 230 234 239 244 241 236 231 230 234 240 240 239 235 228 230 230 231 230 220 219 221 228 239 237 231 232 229 234 237 226 219 222 231 235 231 228 227 228 237 241 241 248 255 261 269 271 266 263 265 269 276 239 194 180 174 173 168 162 159 151
113 119 120 120 128 140 147 149 150 149 149 147 146 153 159 163 164 166 170 169 183 210 226 243 245 247 245 241 237 237 243 242 235 233 239 242 243 240 232 232 230 226 228 226 226 222 224 235 237 235 234 233 235 235 228 222 221 226 233 234 224 213 217 228 237 243 249 256 263 265 262 261 264 261 250 248 231 198 185 181 181 176 172 168 156
112 119 126 129 133 139 145 152 153 149 150 149 149 158 161 165 169 171 180 170 161 205 224 240 248 256 255 246 237 237 243 243 239 236 242 246 247 244 237 233 231 229 229 227 229 228 226 233 237 236 234 231 233 237 233 223 225 231 233 238 233 228 232 221 223 242 251 255 261 264 261 262 264 255 240 230 215 203 192 189 189 186 184 182 175
119 122 127 134 134 135 143 148 149 149 151 153 155 159 159 163 167 175 189 180 170 201 222 239 248 259 265 260 250 248 249 247 247 246 246 247 247 244 240 235 231 233 234 230 232 232 232 234 235 235 233 230 230 237 240 227 228 235 228 228 229 230 243 242 224 231 247 254 256 259 258 258 263 252 238 224 203 206 200 194 196 197 201 202 193
122 121 114 122 121 120 129 134 141 147 153 154 152 153 153 158 169 181 201 211 213 210 226 244 253 264 268 264 258 257 257 255 254 252 249 248 246 243 241 237 232 233 235 234 235 235 237 238 237 234 232 232 228 230 238 232 232 239 229 228 234 230 236 248 246 229 236 248 251 253 252 256 263 252 238 228 208 209 207 204 205 207 212 211 200
113 112 103 106 103 98 105 111 121 128 139 146 142 145 151 159 172 181 198 219 224 221 248 260 267 273 272 264 259 260 260 258 254 249 247 249 248 243 240 238 236 235 235 236 238 237 238 238 237 234 231 233 229 224 231 232 233 238 234 235 238 232 227 240 250 238 228 240 244 243 243 252 263 257 243 231 218 217 218 221 221 217 219 218 211
110 112 109 107 100 95 93 94 107 114 123 133 137 146 155 162 171 174 178 190 199 196 193 199 223 256 271 271 263 260 259 257 256 255 251 246 246 244 240 238 238 238 237 238 241 242 242 238 236 235 232 231 228 225 228 231 233 235 237 239 234 229 228 233 242 235 224 231 236 236 239 247 258 259 248 233 228 229 228 230 230 225 225 224 220
117 123 124 118 107 102 99 99 109 117 125 137 149 159 165 169 174 174 165 167 192 202 183 186 217 258 287 291 276 266 265 263 262 264 258 247 244 244 241 238 237 238 240 243 246 249 248 241 236 236 233 231 231 230 229 230 232 234 234 236 233 230 231 231 232 227 222 225 229 231 237 242 248 254 250 238 236 237 232 229 229 225 225 225 222
119 124 125 120 115 113 114 110 112 123 138 155 165 165 169 175 181 182 163 163 184 227 263 289 314 313 314 309 294 280 274 271 268 268 262 253 249 248 246 240 237 238 241 245 248 250 249 243 238 235 233 232 235 235 232 229 230 233 232 233 231 227 228 229 228 226 221 223 228 230 234 238 241 245 247 243 241 241 233 227 229 226 223 225 226
118 118 114 107 105 107 110 112 116 126 144 169 179 174 178 184 187 188 180 177 184 250 280 300 319 312 315 320 307 289 278 272 272 271 265 258 252 250 250 245 240 238 241 244 247 248 248 244 238 234 233 234 237 236 234 234 233 230 226 227 227 224 224 227 227 226 222 222 229 232 233 235 237 239 242 241 239 238 232 226 230 228 222 225 229
122 118 115 107 99 97 101 101 99 106 120 143 168 183 194 202 201 194 183 171 167 234 267 282 297 292 298 314 311 296 284 274 270 271 269 264 257 251 250 247 244 243 244 245 245 247 248 246 242 238 237 238 240 238 235 235 235 230 222 220 223 222 224 227 228 228 224 223 230 234 235 235 234 235 235 234 234 235 234 229 229 227 222 225 227
119 110 111 109 104 104 105 101 97 100 104 105 115 135 157 181 192 187 167 152 165 198 248 281 297 298 292 305 309 296 283 273 270 273 272 267 262 258 253 248 244 243 247 247 245 244 245 247 248 246 244 244 245 244 240 235 234 233 227 219 216 219 225 229 228 229 228 227 230 232 235 236 233 232 231 230 230 231 233 232 230 230 227 228 226
112 108 111 111 111 115 115 114 117 116 109 107 112 117 121 136 157 164 154 152 183 206 251 283 293 297 294 298 305 297 281 267 265 272 274 270 265 262 259 254 245 239 241 245 244 241 241 244 247 249 249 248 249 249 245 239 234 232 230 228 229 233 236 231 222 221 225 227 230 231 233 236 232 230 232 230 230 231 231 230 228 229 233 231 224
111 113 118 116 114 116 123 128 129 126 124 129 134 132 130 133 135 142 151 163 196 215 258 284 288 291 290 293 300 297 284 270 266 271 277 279 276 271 269 265 253 241 238 240 240 239 237 238 241 245 249 249 250 251 249 244 237 231 229 231 235 239 240 233 223 220 220 221 225 227 230 234 231 231 232 229 229 232 231 227 223 224 232 231 226
119 121 124 123 121 120 126 134 135 144 154 153 151 150 143 136 136 146 157 171 226 241 266 283 286 281 278 288 293 288 283 277 274 272 274 278 280 280 277 273 265 252 245 244 244 242 239 236 235 239 244 246 249 251 252 249 243 239 235 232 234 235 235 234 231 229 228 224 222 223 226 229 231 233 233 229 229 232 232 229 225 223 227 229 227
127 133 136 134 142 150 156 165 172 181 181 168 160 160 154 148 155 171 175 175 209 238 261 266 269 266 261 271 280 280 280 280 281 277 271 271 272 275 276 275 273 263 255 253 252 250 246 242 239 238 240 243 246 250 251 249 247 247 243 237 235 234 231 231 232 231 233 233 227 226 225 224 227 230 230 229 228 229 229 229 228 227 226 227 226
126 141 151 148 158 175 172 171 187 190 189 184 174 173 173 171 173 184 193 197 198 202 233 262 274 275 266 264 266 272 279 282 283 281 278 275 271 273 276 275 275 273 269 264 258 255 252 249 247 245 242 241 243 246 248 250 250 249 248 244 237 232 227 227 229 230 232 234 233 233 229 225 226 227 225 225 225 225 225 225 226 228 225 225 225
131 150 160 156 155 153 113 88 97 109 111 147 171 184 193 195 196 197 207 215 214 216 211 221 311 296 285 281 274 274 279 282 281 280 281 280 276 276 278 276 274 273 274 272 266 261 256 253 252 251 248 243 241 243 246 251 254 251 248 245 240 235 233 232 234 234 234 234 233 234 232 229 230 230 228 225 223 223 223 223 224 226 225 224 224
Height
1514 1515 1518 1518 1521 1521 1522 1523 1524 1526 1527 1529 1530 1532 1532 1534 1535 1536 1537 1537 1537 1537 1538 1538 1538 1538 1538 1537 1538 1538 1539 1539 1540 1540 1541 1541 1542 1542 1543 1543 1543 1544 1544 1545 1545 1545 1545 1545 1545 1546 1546 1546 1546 1546 1546 1546 1546 1546 1547 1547 1547 1547 1547 1547 1546 1546 1545 1545 1545 1545 1544 1544 1544 1544 1543 1543 1544 1544 1544 1544 1544 1544 1544 1544 1544
1513 1515 1517 1518 1521 1521 1523 1523 1525 1526 1528 1530 1531 1532 1533 1535 1536 1537 1537 1538 1538 1538 1539 1539 1539 1539 1539 1539 1539 1540 1540 1541 1541 1542 1542 1543 1543 1544 1544 1545 1545 1545 1546 1546 1546 1546 1546 1546 1547 1547 1547 1547 1547 1547 1547 1547 1547 1548 1548 1548 1548 1548 1548 1547 1547 1547 1546 1546 1546 1546 1546 1545 1545 1544 1544 1544 1544 1545 1545 1545 1545 1545 1545 1545 1545
1513 1515 1516 1518 1520 1522 1523 1524 1526 1527 1529 1530 1532 1533 1534 1536 1537 1538 1538 1539 1539 1539 1540 1540 1540 1540 1540 1540 1541 1541 1542 1542 1543 1543 1544 1544 1545 1545 1546 1546 1547 1547 1547 1547 1548 1548 1548 1548 1548 1548 1548 1548 1548 1548 1548 1548 1549 1549 1549 1549 1549 1549 1549 1548 1548 1548 1547 1547 1547 1547 1547 1546 1545 1545 1545 1545 1545 1545 1545 1545 1545 1545 1546 1546 1546
1513 1514 1516 1518 1520 1522 1523 1525 1526 1528 1530 1531 1533 1534 1535 1537 1538 1539 1539 1540 1540 1541 1541 1541 1541 1541 1542 1542 1542 1543 1543 1543 1544 1545 1545 1546 1546 1547 1547 1548 1548 1549 1549 1549 1549 1549 1549 1549 1549 1549 1549 1549 1550 1550 1550 1550 1550 1550 1550 1550 1550 1550 1550 1549 1549 1548 1548 1548 1548 1548 1548 1547 1546 1546 1546 1546 1546 1546 1546 1546 1546 1546 1546 1547 1547
1513 1514 1516 1517 1520 1522 1524 1525 1527 1529 1531 1532 1534 1535 1537 1538 1539 1540 1540 1541 1541 1542 1542 1543 1543 1543 1543 1543 1544 1544 1545 1545 1545 1546 1547 1547 1548 1548 1549 1549 1550 1550 1551 1550 1551 1551 1551 1551 1551 1550 1550 1550 1551 1551 1551 1551 1551 1552 1551 1551 1551 1551 1551 1551 1550 1550 1549 1548 1548 1548 1548 1548 1547 1547 1547 1547 1547 1547 1547 1547 1547 1547 1548 1548 1548
1513 1514 1516 1518 1520 1522 1524 1526 1528 1530 1532 1533 1535 1537 1538 1540 1541 1541 1542 1542 1542 1543 1543 1544 1544 1544 1545 1545 1545 1546 1546 1547 1547 1548 1548 1549 1549 1550 1551 1551 1552 1552 1552 1552 1552 1552 1552 1552 1552 1552 1551 1552 1552 1552 1552 1552 1552 1553 1553 1553 1552 1552 1552 1552 1552 1551 1551 1550 1549 1549 1549 1549 1549 1548 1548 1549 1549 1549 1549 1549 1549 1549 1549 1549 1549
1513 1515 1516 1518 1520 1522 1525 1527 1529 1531 1533 1535 1536 1538 1540 1541 1542 1543 1543 1543 1544 1544 1544 1545 1545 1546 1546 1546 1547 1547 1548 1549 1549 1550 1550 1551 1551 1552 1553 1553 1554 1554 1554 1554 1554 1554 1554 1554 1553 1553 1553 1553 1553 1553 1553 1553 1553 1554 1554 1554 1553 1553 1553 1553 1553 1553 1552 1551 1551 1551 1551 1550 1550 1550 1550 1550 1550 1550 1550 1550 1550 1550 1550 1550 1550
1514 1515 1517 1519 1521 1523 1526 1528 1531 1532 1534 1536 1538 1539 1541 1542 1543 1544 1544 1544 1545 1545 1546 1546 1547 1547 1547 1548 1548 1549 1550 1550 1551 1551 1552 1552 1553 1554 1554 1555 1555 1556 1556 1556 1556 1556 1556 1556 1555 1554 1554 1554 1554 1554 1554 1554 1554 1555 1555 1555 1554 1554 1554 1553 1553 1553 1553 1553 1552 1552 1552 1551 1551 1551 1552 1552 1552 1552 1552 1552 1552 1552 1552 1552 1552
1514 1515 1518 1520 1522 1525 1527 1530 1532 1534 1536 1537 1539 1541 1542 1543 1544 1545 1545 1545 1546 1546 1547 1547 1548 1548 1549 1549 1550 1551 1551 1552 1552 1553 1554 1554 1555 1555 1556 1557 1557 1557 1558 1558 1558 1558 1558 1557 1557 1556 1556 1556 1556 1556 1556 1555 1556 1556 1556 1556 1555 1555 1555 1554 1554 1554 1554 1553 1553 1554 1553 1553 1553 1553 1554 1554 1554 1554 1554 1554 1553 1553 1553 1553 1553
1514 1516 1520 1521 1524 1526 1528 1531 1533 1535 1537 1539 1540 1542 1543 1544 1545 1545 1546 1546 1547 1547 1548 1548 1549 1549 1550 1550 1551 1552 1553 1553 1554 1554 1555 1555 1556 1557 1558 1558 1558 1559 1559 1560 1559 1559 1559 1559 1558 1558 1558 1557 1557 1557 1557 1557 1557 1557 1557 1557 1557 1556 1556 1556 1555 1555 1555 1554 1554 1554 1554 1554 1554 1554 1555 1555 1555 1555 1555 1555 1554 1554 1554 1554 1554
1514 1518 1521 1523 1526 1528 1530 1533 1535 1537 1538 1540 1541 1543 1544 1545 1546 1546 1546 1547 1547 1548 1548 1549 1550 1550 1551 1551 1552 1553 1554 1554 1555 1555 1556 1557 1558 1558 1559 1559 1560 1560 1560 1561 1561 1561 1560 1560 1560 1560 1559 1559 1559 1559 1559 1559 1559 1558 1558 1558 1558 1558 1557 1557 1556 1555 1555 1555 1555 1555 1555 1555 1555 1555 1555 1556 1556 1556 1555 1555 1555 1555 1555 1555 1554
1517 1519 1522 1524 1527 1529 1532 1534 1536 1538 1539 1541 1542 1543 1544 1545 1546 1546 1547 1547 1548 1549 1549 1550 1550 1551 1552 1553 1553 1554 1555 1555 1556 1557 1557 1558 1559 1560 1560 1561 1561 1561 1562 1562 1562 1562 1562 1562 1561 1561 1561 1561 1560 1560 1560 1560 1560 1560 1560 1560 1559 1559 1558 1557 1557 1556 1556 1556 1557 1557 1556 1556 1556 1556 1556 1557 1557 1557 1556 1556 1556 1556 1556 1555 1555
1518 1521 1523 1526 1528 1531 1533 1536 1537 1539 1540 1541 1543 1543 1544 1545 1546 1546 1547 1548 1548 1549 1550 1551 1551 1552 1553 1554 1554 1555 1556 1557 1557 1558 1558 1559 1560 1561 1561 1562 1562 1563 1563 1563 1563 1563 1563 1563 1563 1563 1563 1562 1562 1562 1562 1562 1562 1562 1561 1561 1560 1560 1559 1558 1557 1557 1557 1558 1558 1558 1558 1557 1557 1558 1558 1558 1558 1557 1557 1557 1557 1557 1556 1556 1556
1520 1522 1525 1527 1530 1533 1535 1537 1538 1540 1541 1542 1543 1543 1544 1545 1546 1547 1547 1548 1549 1550 1550 1551 1552 1553 1554 1554 1555 1556 1557 1558 1559 1559 1560 1561 1561 1562 1563 1563 1563 1564 1564 1564 1564 1564 1564 1564 1564 1564 1564 1564 1564 1564 1563 1563 1563 1563 1563 1562 1562 1561 1560 1559 1558 1558 1559 1559 1559 1559 1559 1558 1558 1558 1559 1558 1558 1558 1558 1558 1557 1557 1557 1557 1557
1522 1524 1526 1529 1531 1534 1536 1537 1539 1540 1541 1542 1543 1543 1544 1545 1546 1546 1547 1548 1549 1550 1551 1552 1553 1554 1555 1555 1556 1557 1558 1559 1559 1560 1561 1562 1562 1563 1564 1564 1564 1565 1565 1565 1565 1565 1565 1565 1565 1565 1566 1566 1566 1566 1565 1565 1565 1565 1565 1564 1563 1562 1561 1560 1560 1560 1560 1560 1560 1560 1560 1560 1560 1559 1559 1559 1559 1559 1559 1559 1558 1558 1558 1558 1557
1523 1526 1528 1530 1533 1535 1537 1538 1539 1540 1541 1542 1543 1543 1544 1545 1545 1546 1546 1547 1549 1550 1551 1552 1553 1554 1555 1556 1556 1557 1558 1559 1560 1561 1561 1562 1563 1564 1564 1565 1565 1565 1565 1566 1566 1566 1566 1566 1566 1567 1567 1567 1567 1568 1567 1567 1567 1567 1566 1566 1565 1563 1562 1561 1561 1561 1560 1561 1561 1561 1561 1561 1561 1561 1561 1560 1560 1560 1560 1560 1559 1559 1559 1558 1558
1524 1527 1529 1531 1534 1536 1537 1538 1539 1540 1541 1542 1543 1543 1544 1544 1545 1545 1546 1547 1548 1550 1551 1552 1553 1554 1555 1556 1557 1557 1558 1559 1560 1561 1562 1563 1563 1564 1565 1565 1566 1566 1566 1566 1567 1567 1567 1567 1567 1568 1568 1568 1569 1569 1569 1569 1569 1568 1568 1567 1566 1565 1563 1562 1562 1562 1562 1562 1562 1562 1562 1562 1562 1562 1561 1561 1561 1561 1561 1560 1560 1560 1559 1559 1559
1525 1528 1530 1532 1534 1536 1538 1539 1540 1541 1541 1542 1542 1542 1543 1544 1544 1545 1546 1547 1548 1549 1551 1552 1553 1554 1555 1556 1556 1557 1558 1559 1560 1561 1562 1563 1563 1564 1565 1565 1566 1566 1567 1567 1567 1567 1568 1568 1568 1569 1569 1569 1570 1570 1570 1570 1570 1570 1569 1569 1567 1566 1564 1563 1563 1563 1563 1563 1563 1563 1563 1563 1563 1562 1562 1562 1562 1562 1561 1561 1561 1560 1560 1559 1559
1526 1529 1531 1533 1536 1538 1539 1540 1540 1540 1540 1540 1540 1541 1542 1543 1544 1545 1546 1547 1548 1549 1551 1552 1553 1554 1555 1555 1556 1557 1558 1558 1559 1560 1561 1562 1563 1564 1564 1565 1566 1566 1567 1567 1568 1568 1568 1569 1569 1569 1569 1570 1571 1571 1571 1570 1571 1571 1570 1570 1568 1567 1565 1565 1565 1564 1564 1564 1564 1563 1563 1563 1563 1563 1563 1563 1562 1562 1562 1561 1561 1561 1560 1560 1559
1527 1530 1532 1535 1538 1540 1540 1540 1539 1539 1539 1539 1539 1540 1541 1542 1544 1545 1546 1547 1548 1549 1551 1552 1553 1554 1555 1555 1556 1557 1557 1558 1559 1560 1560 1561 1562 1563 1564 1564 1565 1566 1567 1568 1568 1568 1569 1569 1570 1570 1570 1570 1571 1571 1571 1571 1571 1571 1571 1570 1569 1568 1567 1567 1566 1565 1565 1565 1564 1564 1564 1564 1564 1564 1563 1563 1563 1562 1562 1562 1561 1561 1560 1560 1560
1528 1531 1534 1536 1538 1539 1538 1537 1537 1537 1537 1538 1539 1539 1541 1542 1544 1545 1546 1547 1548 1550 1551 1552 1553 1554 1554 1555 1555 1556 1558 1558 1559 1560 1561 1561 1561 1562 1563 1564 1565 1566 1567 1568 1568 1569 1569 1569 1570 1570 1570 1570 1571 1572 1572 1572 1572 1572 1572 1571 1570 1569 1568 1567 1567 1567 1566 1565 1565 1565 1565 1565 1565 1564 1564 1564 1563 1563 1562 1562 1561 1561 1560 1560 1560
1529 1534 1536 1537 1537 1536 1534 1535 1535 1536 1537 1537 1538 1539 1541 1542 1544 1545 1546 1547 1548 1550 1550 1551 1552 1553 1554 1555 1555 1557 1558 1559 1559 1561 1561 1562 1562 1562 1563 1564 1565 1566 1567 1568 1568 1569 1569 1569 1570 1570 1570 1571 1571 1572 1572 1572 1573 1572 1572 1572 1570 1569 1568 1568 1568 1568 1567 1566 1566 1565 1565 1565 1565 1565 1564 1564 1563 1563 1562 1562 1561 1561 1560 1560 1560
1530 1534 1536 1535 1535 1534 1532 1534 1535 1536 1537 1538 1539 1539 1540 1542 1544 1545 1546 1547 1548 1550 1550 1551 1552 1553 1554 1554 1555 1557 1558 1559 1559 1560 1561 1562 1563 1563 1563 1564 1565 1566 1567 1568 1568 1569 1569 1569 1570 1570 1570 1571 1571 1572 1572 1573 1573 1573 1573 1572 1570 1569 1568 1569 1569 1569 1568 1567 1567 1566 1566 1566 1565 1565 1565 1564 1564 1563 1562 1562 1561 1561 1561 1560 1560
1530 1531 1532 1532 1533 1534 1534 1536 1536 1537 1537 1538 1539 1538 1539 1541 1543 1545 1546 1547 1549 1550 1550 1552 1553 1554 1554 1554 1555 1556 1557 1558 1559 1560 1561 1562 1562 1563 1564 1564 1565 1566 1567 1568 1569 1569 1569 1570 1570 1570 1570 1571 1571 1572 1572 1573 1573 1573 1573 1573 1571 1569 1569 1569 1570 1570 1569 1568 1567 1567 1566 1566 1565 1565 1565 1564 1563 1563 1562 1562 1562 1561 1561 1560 1560
1529 1530 1532 1533 1534 1535 1535 1536 1537 1535 1535 1537 1538 1537 1538 1541 1543 1544 1546 1547 1549 1550 1551 1552 1553 1554 1554 1555 1556 1556 1557 1558 1558 1559 1560 1561 1561 1562 1563 1564 1565 1566 1567 1568 1569 1569 1570 1570 1570 1570 1570 1571 1571 1572 1572 1573 1573 1574 1573 1573 1572 1570 1570 1570 1570 1570 1569 1568 1568 1567 1567 1566 1565 1565 1564 1564 1563 1563 1563 1562 1562 1561 1561 1561 1560
1528 1530 1533 1534 1534 1535 1535 1536 1536 1535 1536 1538 1538 1538 1539 1542 1544 1545 1546 1548 1550 1550 1551 1552 1553 1554 1554 1555 1556 1556 1557 1557 1558 1559 1560 1560 1561 1561 1562 1563 1564 1565 1566 1567 1568 1569 1570 1570 1571 1571 1571 1571 1571 1572 1572 1572 1573 1574 1573 1573 1572 1571 1571 1571 1570 1570 1569 1569 1568 1567 1567 1566 1565 1565 1564 1564 1563 1563 1563 1562 1562 1561 1561 1561 1560
1527 1529 1532 1534 1534 1534 1536 1537 1537 1536 1537 1539 1540 1540 1541 1543 1544 1545 1546 1548 1550 1551 1552 1552 1553 1553 1553 1554 1555 1555 1555 1556 1557 1558 1558 1559 1560 1561 1561 1561 1563 1564 1565 1566 1567 1568 1569 1570 1571 1571 1571 1571 1571 1571 1571 1571 1572 1573 1573 1573 1572 1571 1571 1571 1570 1570 1569 1569 1568 1567 1567 1566 1565 1565 1564 1564 1563 1563 1563 1562 1562 1561 1561 1561 1560
1527 1529 1531 1533 1533 1534 1536 1537 1537 1538 1538 1540 1541 1542 1543 1544 1545 1546 1547 1549 1551 1551 1552 1553 1553 1553 1553 1554 1554 1554 1555 1555 1556 1556 1556 1557 1558 1559 1560 1560 1561 1563 1564 1565 1566 1567 1568 1569 1570 1571 1570 1570 1570 1570 1571 1571 1572 1572 1573 1573 1571 1570 1570 1570 1570 1570 1569 1569 1568 1567 1567 1566 1565 1564 1564 1563 1563 1563 1563 1562 1562 1561 1561 1561 1561
1527 1529 1530 1531 1533 1534 1535 1536 1537 1538 1539 1540 1542 1543 1544 1545 1546 1546 1547 1549 1551 1552 1552 1553 1553 1553 1553 1553 1553 1554 1554 1554 1554 1554 1555 1555 1556 1558 1559 1560 1560 1561 1562 1563 1564 1565 1567 1568 1569 1570 1570 1570 1570 1569 1570 1570 1571 1572 1572 1572 1571 1569 1569 1569 1569 1569 1569 1569 1568 1567 1567 1566 1565 1564 1564 1563 1563 1563 1562 1562 1562 1562 1561 1561 1561
1527 1529 1530 1531 1532 1533 1535 1537 1538 1538 1539 1541 1542 1543 1544 1545 1546 1546 1547 1549 1550 1551 1552 1552 1552 1553 1553 1553 1553 1553 1553 1554 1554 1554 1554 1555 1555 1556 1558 1559 1559 1559 1560 1562 1563 1563 1565 1566 1568 1569 1569 1569 1569 1569 1569 1570 1571 1571 1571 1571 1571 1569 1568 1568 1568 1568 1568 1568 1568 1567 1567 1566 1565 1564 1564 1563 1563 1562 1562 1562 1562 1562 1562 1562 1562
1528 1529 1530 1531 1532 1533 1535 1537 1538 1538 1539 1541 1542 1543 1544 1545 1545 1546 1547 1548 1549 1550 1551 1552 1552 1553 1553 1553 1553 1552 1553 1553 1553 1554 1554 1554 1554 1555 1557 1558 1558 1559 1559 1561 1562 1562 1563 1564 1566 1568 1569 1569 1568 1568 1569 1570 1570 1571 1570 1570 1570 1569 1567 1567 1567 1566 1566 1566 1567 1567 1566 1565 1565 1564 1564 1563 1563 1562 1562 1562 1562 1562 1562 1562 1562
1529 1529 1530 1531 1533 1534 1535 1537 1538 1539 1540 1541 1542 1543 1544 1545 1545 1546 1546 1547 1548 1549 1551 1551 1552 1552 1552 1552 1552 1552 1552 1552 1552 1552 1553 1553 1554 1554 1555 1556 1557 1558 1558 1559 1560 1561 1561 1562 1564 1566 1567 1568 1567 1567 1568 1569 1569 1569 1569 1569 1569 1569 1567 1566 1566 1565 1565 1565 1566 1566 1566 1565 1565 1564 1564 1563 1562 1562 1562 1562 1563 1563 1563 1562 1562
1529 1530 1531 1533 1533 1535 1536 1537 1538 1539 1540 1541 1542 1543 1544 1544 1545 1546 1546 1547 1547 1548 1550 1551 1551 1551 1551 1551 1552 1552 1552 1552 1552 1552 1552 1552 1553 1553 1554 1555 1556 1557 1558 1558 1558 1559 1560 1561 1562 1563 1565 1566 1566 1566 1567 1568 1568 1568 1568 1568 1568 1569 1567 1565 1565 1564 1564 1564 1565 1565 1565 1565 1565 1564 1563 1563 1562 1562 1562 1562 1563 1563 1563 1563 1563
1530 1531 1532 1533 1534 1535 1537 1537 1538 1539 1540 1541 1542 1543 1544 1544 1545 1545 1546 1547 1547 1548 1549 1549 1550 1551 1551 1550 1550 1551 1551 1552 1552 1552 1552 1552 1552 1553 1553 1554 1555 1556 1557 1557 1557 1557 1558 1559 1561 1561 1562 1564 1564 1564 1565 1566 1567 1566 1565 1565 1566 1567 1566 1564 1564 1563 1563 1563 1564 1564 1564 1564 1564 1564 1563 1562 1562 1562 1562 1562 1563 1563 1563 1563 1563
1531 1532 1533 1534 1535 1536 1537 1538 1539 1540 1540 1541 1542 1543 1543 1544 1544 1545 1546 1547 1547 1547 1548 1548 1549 1550 1550 1550 1550 1550 1550 1551 1551 1552 1552 1552 1552 1553 1553 1553 1554 1555 1556 1556 1556 1556 1556 1557 1558 1559 1561 1562 1562 1563 1563 1563 1564 1564 1563 1563 1565 1564 1563 1563 1562 1562 1562 1562 1563 1563 1563 1563 1563 1563 1563 1562 1562 1562 1562 1562 1563 1563 1564 1564 1564
1531 1533 1534 1535 1536 1536 1537 1538 1539 1540 1541 1541 1542 1543 1543 1544 1544 1545 1546 1547 1547 1547 1547 1548 1548 1548 1549 1550 1550 1551 1551 1551 1551 1551 1551 1552 1551 1552 1552 1553 1553 1554 1554 1554 1555 1555 1555 1555 1556 1557 1559 1559 1560 1560 1560 1560 1561 1562 1562 1562 1564 1564 1564 1563 1561 1561 1561 1561 1561 1562 1562 1562 1563 1562 1562 1562 1562 1562 1562 1562 1563 1563 1564 1564 1564
1532 1533 1534 1535 1536 1536 1537 1538 1539 1540 1541 1542 1542 1543 1543 1544 1544 1545 1545 1546 1546 1546 1547 1547 1547 1547 1548 1548 1549 1550 1550 1550 1550 1550 1550 1550 1550 1550 1551 1551 1552 1552 1553 1553 1553 1553 1553 1554 1555 1555 1557 1557 1558 1558 1558 1559 1559 1559 1559 1560 1562 1563 1564 1563 1562 1561 1560 1560 1560 1560 1561 1561 1561 1562 1562 1561 1561 1561 1562 1562 1562 1563 1563 1564 1564
1533 1534 1535 1536 1536 1537 1538 1539 1539 1540 1541 1541 1542 1543 1543 1544 1544 1544 1545 1546 1545 1546 1546 1547 1547 1547 1547 1547 1547 1547 1548 1548 1549 1549 1549 1549 1548 1548 1549 1549 1550 1551 1551 1551 1551 1551 1552 1552 1553 1554 1555 1555 1556 1557 1556 1558 1558 1558 1559 1559 1561 1562 1563 1563 1563 1562 1560 1559 1559 1559 1559 1559 1560 1561 1561 1561 1561 1561 1561 1561 1562 1562 1563 1563 1564
1534 1535 1536 1537 1537 1538 1538 1539 1540 1540 1541 1541 1542 1543 1543 1543 1544 1544 1544 1545 1545 1545 1546 1546 1546 1546 1546 1546 1546 1546 1546 1546 1547 1547 1547 1547 1547 1547 1547 1547 1549 1549 1550 1550 1549 1549 1550 1551 1551 1552 1553 1554 1554 1555 1555 1556 1556 1557 1558 1558 1559 1560 1561 1561 1561 1561 1560 1559 1558 1558 1558 1558 1558 1560 1560 1560 1560 1560 1561 1561 1561 1562 1562 1563 1563
1534 1535 1536 1537 1538 1538 1539 1539 1540 1540 1541 1542 1542 1542 1543 1543 1543 1544 1544 1544 1544 1545 1545 1546 1545 1545 1545 1544 1544 1545 1545 1545 1545 1545 1545 1545 1545 1545 1545 1546 1547 1548 1548 1548 1548 1548 1549 1549 1550 1551 1551 1552 1552 1552 1553 1554 1554 1555 1556 1557 1557 1558 1559 1558 1558 1558 1558 1558 1557 1557 1557 1556 1556 1558 1559 1559 1559 1559 1560 1560 1560 1561 1561 1562 1562
1535 1537 1537 1538 1538 1538 1539 1539 1540 1541 1541 1541 1542 1542 1542 1542 1542 1543 1543 1544 1544 1544 1544 1545 1545 1544 1544 1543 1543 1543 1543 1544 1544 1543 1543 1543 1543 1543 1543 1543 1544 1546 1546 1547 1548 1548 1548 1548 1549 1550 1550 1550 1550 1550 1552 1552 1552 1553 1553 1554 1555 1555 1556 1556 1555 1555 1556 1556 1556 1555 1555 1555 1555 1555 1557 1558 1558 1558 1558 1559 1559 1560 1560 1561 1561
1536 1537 1538 1538 1539 1539 1539 1540 1540 1541 1541 1541 1541 1541 1542 1542 1542 1542 1543 1543 1543 1542 1542 1542 1542 1542 1542 1542 1542 1542 1542 1542 1542 1542 1542 1542 1542 1541 1541 1541 1542 1543 1544 1545 1546 1547 1547 1547 1547 1548 1548 1549 1549 1549 1550 1550 1550 1550 1551 1552 1553 1553 1554 1553 1553 1553 1554 1554 1554 1554 1553 1553 1554 1554 1555 1556 1556 1557 1557 1557 1558 1559 1559 1560 1560
1536 1537 1538 1538 1539 1539 1539 1540 1540 1540 1540 1541 1541 1541 1541 1541 1541 1542 1542 1542 1542 1541 1541 1541 1541 1541 1541 1541 1541 1540 1540 1540 1540 1540 1540 1540 1540 1540 1540 1540 1540 1541 1542 1543 1544 1545 1546 1546 1547 1547 1547 1547 1547 1548 1548 1549 1549 1549 1550 1550 1551 1551 1551 1550 1550 1551 1551 1552 1552 1552 1552 1551 1552 1552 1553 1553 1554 1555 1555 1556 1557 1557 1558 1559 1559
1536 1537 1538 1538 1539 1539 1539 1539 1540 1540 1540 1540 1540 1540 1540 1540 1540 1541 1542 1542 1542 1541 1541 1540 1541 1541 1541 1541 1540 1540 1539 1539 1538 1538 1538 1538 1538 1538 1538 1539 1540 1540 1541 1541 1542 1543 1544 1545 1546 1547 1547 1546 1546 1546 1547 1547 1547 1547 1547 1547 1549 1549 1547 1546 1546 1548 1549 1550 1550 1550 1550 1550 1550 1550 1551 1551 1552 1553 1554 1554 1555 1556 1557 1558 1558
1537 1537 1538 1538 1538 1538 1539 1539 1539 1539 1539 1539 1539 1539 1539 1539 1539 1540 1541 1541 1541 1541 1540 1540 1540 1541 1541 1541 1540 1539 1539 1538 1537 1537 1536 1536 1536 1536 1536 1536 1537 1539 1539 1540 1540 1541 1541 1543 1544 1545 1546 1545 1545 1545 1545 1546 1545 1545 1545 1545 1546 1546 1544 1544 1545 1546 1547 1547 1548 1548 1549 1548 1548 1548 1548 1550 1551 1551 1552 1553 1554 1555 1555 1556 1557
1537 1538 1537 1538 1537 1538 1538 1538 1538 1538 1539 1538 1538 1538 1538 1538 1538 1539 1540 1540 1540 1540 1540 1540 1540 1540 1540 1540 1539 1539 1538 1538 1537 1536 1535 1535 1535 1535 1535 1535 1535 1535 1536 1537 1537 1537 1538 1539 1540 1541 1542 1543 1544 1544 1543 1543 1543 1544 1543 1542 1542 1542 1542 1544 1544 1544 1544 1545 1546 1547 1547 1547 1547 1546 1546 1547 1548 1549 1550 1551 1552 1553 1554 1555 1556
1537 1537 1537 1537 1537 1537 1537 1537 1538 1538 1538 1538 1537 1537 1537 1537 1537 1538 1539 1539 1539 1539 1539 1540 1539 1539 1539 1539 1538 1538 1537 1536 1536 1535 1535 1534 1534 1534 1534 1534 1533 1533 1533 1533 1532 1533 1533 1533 1534 1536 1538 1540 1541 1541 1541 1541 1541 1541 1541 1540 1540 1541 1541 1542 1542 1542 1542 1542 1543 1544 1544 1545 1545 1544 1544 1545 1546 1547 1548 1549 1550 1551 1552 1553 1554
1536 1536 1536 1537 1537 1537 1537 1537 1538 1537 1537 1537 1537 1537 1537 1537 1537 1537 1538 1538 1538 1538 1538 1538 1538 1538 1538 1537 1537 1536 1536 1535 1535 1535 1534 1534 1533 1533 1533 1533 1532 1532 1531 1530 1530 1530 1530 1529 1529 1530 1532 1534 1536 1537 1538 1539 1538 1538 1538 1539 1538 1539 1540 1540 1540 1540 1540 1539 1539 1540 1541 1542 1542 1542 1542 1543 1544 1544 1545 1547 1549 1549 1550 1551 1552
1535 1535 1536 1537 1537 1537 1537 1537 1537 1537 1536 1536 1536 1536 1536 1536 1536 1536 1536 1536 1536 1536 1536 1536 1536 1536 1536 1536 1535 1535 1534 1534 1534 1534 1533 1533 1532 1532 1532 1532 1531 1531 1530 1529 1529 1530 1530 1528 1527 1527 1527 1529 1531 1533 1535 1535 1536 1536 1536 1537 1537 1537 1538 1538 1538 1538 1537 1537 1537 1537 1538 1539 1539 1539 1540 1541 1541 1542 1543 1545 1546 1548 1549 1550 1551
1535 1535 1536 1536 1537 1537 1537 1536 1536 1536 1535 1535 1535 1535 1535 1535 1535 1535 1535 1535 1535 1535 1535 1535 1535 1534 1534 1534 1534 1533 1533 1533 1533 1532 1532 1531 1531 1531 1530 1530 1530 1530 1529 1528 1528 1528 1528 1528 1527 1527 1526 1525 1526 1528 1530 1532 1533 1534 1534 1534 1534 1534 1534 1535 1534 1534 1535 1535 1534 1534 1535 1536 1536 1536 1537 1538 1539 1540 1541 1543 1544 1546 1547 1548 1549
1535 1535 1535 1536 1536 1536 1536 1535 1535 1534 1534 1534 1534 1534 1534 1534 1534 1534 1534 1534 1534 1534 1534 1534 1533 1533 1533 1532 1532 1532 1532 1532 1531 1531 1530 1530 1530 1529 1529 1528 1528 1528 1527 1526 1526 1526 1526 1526 1526 1526 1525 1524 1524 1525 1527 1529 1530 1531 1531 1532 1532 1531 1531 1531 1531 1532 1532 1532 1532 1532 1532 1533 1534 1534 1535 1536 1537 1538 1539 1540 1542 1543 1545 1546 1547